GW2822 Weather Reports


time (UTC)temp
C
wind
direction
speed
KPH
gust
KPH
rain 1hr
cm
rain 24hr
cm
rain mn
cm
humidity
%
barometer
mb
20260508052537 16 19 0.0 4.8 0.00 0.00 0.00 80 1013.0
20260508052050 16 336 0.0 1.6 0.00 0.00 0.00 80 1013.3
20260508051600 16 336 0.0 0.0 0.00 0.00 0.00 80 1013.5
20260508051502 16 336 0.0 0.0 0.00 0.00 0.00 80 1013.6
20260508051016 16 336 0.0 3.2 0.00 0.00 0.00 80 1013.6
20260508050527 16 336 0.0 3.2 0.00 0.00 0.00 80 1013.8
20260508050025 16 336 0.0 1.6 0.00 0.00 0.00 79 1013.6
20260508045539 16 336 0.0 4.8 0.00 0.00 0.00 79 1013.6
20260508045051 16 336 0.0 4.8 0.00 0.00 0.00 80 1013.8
20260508044508 16 355 0.0 4.8 0.00 0.00 0.00 80 1013.7
20260508044021 16 338 0.0 4.8 0.00 0.00 0.00 80 1013.5
20260508043533 15 338 0.0 3.2 0.00 0.00 0.00 80 1013.4
20260508043046 15 330 0.0 6.4 0.00 0.00 0.00 80 1013.5
20260508042503 15 299 0.0 6.4 0.00 0.00 0.00 81 1013.7
20260508042015 16 5 3.2 8.0 0.00 0.00 0.00 81 1013.3
20260508041529 16 343 1.6 8.0 0.00 0.00 0.00 81 1013.3
20260508041045 16 50 1.6 6.4 0.00 0.00 0.00 81 1012.5
20260508040556 16 42 0.0 8.0 0.00 0.00 0.00 81 1012.7
20260508040048 16 51 1.6 11.3 0.00 0.00 0.00 81 1012.7
20260508035511 16 46 4.8 11.3 0.00 0.00 0.00 81 1012.5
20260508035029 16 66 4.8 9.7 0.00 0.00 0.00 80 1012.4
20260508034538 16 58 1.6 4.8 0.00 0.00 0.00 81 1012.7
20260508034057 16 349 0.0 1.6 0.00 0.00 0.00 81 1013.0
20260508033510 16 349 0.0 0.0 0.00 0.00 0.00 80 1013.3
20260508033025 16 349 0.0 1.6 0.00 0.00 0.00 80 1013.6
20260508032536 16 349 0.0 1.6 0.00 0.00 0.00 80 1013.7
20260508032050 16 349 0.0 1.6 0.00 0.00 0.00 80 1013.7
20260508031608 16 349 0.0 3.2 0.00 0.00 0.00 80 1013.9
20260508031501 16 349 0.0 3.2 0.00 0.00 0.00 80 1014.0
20260508031015 16 349 0.0 3.2 0.00 0.00 0.00 80 1014.0
20260508030525 16 259 0.0 0.0 0.00 0.00 0.00 79 1014.0
20260508030019 16 259 0.0 1.6 0.00 0.00 0.00 79 1014.3
20260508025536 16 259 0.0 1.6 0.00 0.00 0.00 79 1014.4
20260508025048 16 259 0.0 1.6 0.00 0.00 0.00 78 1014.5
20260508024505 16 259 0.0 3.2 0.00 0.00 0.00 79 1014.4
20260508024015 16 259 0.0 4.8 0.00 0.00 0.00 79 1014.5
20260508023532 16 261 0.0 4.8 0.00 0.00 0.00 79 1014.4
20260508023042 16 261 1.6 6.4 0.00 0.00 0.00 79 1014.0
20260508022557 16 277 1.6 6.4 0.00 0.00 0.00 79 1013.9
20260508022018 16 268 3.2 6.4 0.00 0.00 0.00 78 1013.5
20260508021531 16 290 0.0 3.2 0.00 0.00 0.00 77 1012.9
20260508021049 17 24 0.0 3.2 0.00 0.00 0.00 77 1012.3
20260508020502 17 42 0.0 3.2 0.00 0.00 0.00 76 1012.2
20260508020057 17 42 0.0 3.2 0.00 0.00 0.00 77 1012.1
20260508015510 17 42 0.0 6.4 0.00 0.00 0.00 76 1011.7
20260508015027 17 36 1.6 6.4 0.00 0.00 0.00 75 1011.8
20260508014539 17 346 1.6 6.4 0.00 0.00 0.00 75 1012.2
20260508014055 17 351 1.6 6.4 0.00 0.00 0.00 75 1012.1
20260508013507 17 5 1.6 11.3 0.00 0.00 0.00 75 1012.0
20260508013021 17 86 4.8 11.3 0.00 0.00 0.00 75 1011.4
20260508012535 17 78 1.6 6.4 0.00 0.00 0.00 75 1011.7
20260508012049 17 30 1.6 9.7 0.00 0.00 0.00 74 1011.9
20260508011610 17 64 4.8 9.7 0.00 0.00 0.00 74 1011.8
20260508011508 17 71 4.8 9.7 0.00 0.00 0.00 74 1011.7
20260508011015 17 49 3.2 8.0 0.00 0.00 0.00 74 1011.8
20260508010535 17 345 3.2 12.9 0.00 0.00 0.00 74 1012.1
20260508010033 17 80 4.8 12.9 0.00 0.00 0.00 74 1011.9
20260508005541 17 97 3.2 8.0 0.00 0.00 0.00 74 1011.8
20260508005056 17 61 1.6 8.0 0.00 0.00 0.00 73 1012.3
20260508004513 17 331 1.6 8.0 0.00 0.00 0.00 73 1012.5
20260508004025 17 44 3.2 14.5 0.00 0.00 0.00 73 1011.8
20260508003539 17 315 1.6 14.5 0.00 0.00 0.00 73 1012.5
20260508003101 17 350 4.8 14.5 0.00 0.00 0.00 73 1011.7
20260508002506 18 43 6.4 14.5 0.00 0.00 0.00 73 1011.4
20260508002020 18 322 9.7 14.5 0.00 0.00 0.00 73 1012.1
20260508001538 18 74 6.4 11.3 0.00 0.00 0.00 73 1011.1
20260508001042 18 85 0.0 9.7 0.00 0.00 0.00 73 1012.1
20260508000557 18 90 3.2 9.7 0.00 0.00 0.00 73 1012.3
20260508000048 18 68 4.8 9.7 0.00 0.00 0.00 73 1012.2
20260507235505 18 327 3.2 9.7 0.00 0.00 0.00 73 1012.6
20260507235024 18 90 4.8 9.7 0.00 0.00 0.00 72 1012.6
20260507234533 18 53 3.2 12.9 0.00 0.00 0.00 72 1012.7
20260507234048 18 89 8.0 12.9 0.00 0.00 0.00 71 1012.6
20260507233600 18 82 3.2 9.7 0.00 0.00 0.00 72 1012.7
20260507233503 18 61 3.2 9.7 0.00 0.00 0.00 71 1012.8
20260507233021 18 59 3.2 8.0 0.00 0.00 0.00 70 1013.3
20260507232533 18 24 0.0 8.0 0.00 0.00 0.00 71 1013.6
20260507232048 18 63 3.2 8.0 0.00 0.00 0.00 69 1013.6
20260507231502 18 57 3.2 8.0 0.00 0.00 0.00 71 1013.9
20260507231016 18 346 0.0 8.0 0.00 0.00 0.00 70 1014.0
20260507230532 18 355 3.2 8.0 0.00 0.00 0.00 71 1013.7
20260507230026 18 45 3.2 8.0 0.00 0.00 0.00 71 1013.5
20260507225540 18 16 1.6 8.0 0.00 0.00 0.00 72 1013.5
20260507225055 18 66 3.2 8.0 0.00 0.00 0.00 72 1013.6
20260507224515 18 61 0.0 11.3 0.00 0.00 0.00 71 1013.6
20260507224020 18 49 4.8 12.9 0.00 0.00 0.00 71 1013.6
20260507223541 18 348 1.6 9.7 0.00 0.00 0.00 71 1013.7
20260507223048 18 360 3.2 9.7 0.00 0.00 0.00 69 1014.1
20260507222506 18 9 1.6 9.7 0.00 0.00 0.00 69 1014.2
20260507222016 18 333 1.6 14.5 0.00 0.00 0.00 68 1014.4
20260507221530 18 13 3.2 16.1 0.00 0.00 0.00 68 1014.3
20260507221044 18 84 9.7 16.1 0.00 0.00 0.00 68 1013.7
20260507220556 18 51 6.4 16.1 0.00 0.00 0.00 69 1013.9
20260507220054 18 28 8.0 16.1 0.00 0.00 0.00 68 1013.9
20260507215509 18 11 8.0 19.3 0.00 0.00 0.00 69 1014.0
20260507215024 18 49 4.8 14.5 0.00 0.00 0.00 70 1014.1
20260507214536 18 349 6.4 14.5 0.00 0.00 0.00 69 1014.5
20260507214053 18 19 4.8 16.1 0.00 0.00 0.00 69 1014.5
20260507213505 18 18 6.4 19.3 0.00 0.00 0.00 67 1014.6
20260507213029 18 40 6.4 19.3 0.00 0.00 0.00 68 1014.4
20260507212539 18 21 3.2 16.1 0.00 0.00 0.00 68 1014.5
20260507212050 18 42 6.4 16.1 0.00 0.00 0.00 68 1014.4
20260507211504 18 360 6.4 16.1 0.00 0.00 0.00 69 1014.2
20260507211018 18 49 6.4 19.3 0.00 0.00 0.00 68 1014.3
20260507210528 18 42 9.7 19.3 0.00 0.00 0.00 68 1014.7
20260507210028 18 10 8.0 17.7 0.00 0.00 0.00 68 1014.7
20260507205542 18 355 3.2 22.5 0.00 0.00 0.00 70 1014.7
20260507205051 18 44 9.7 22.5 0.00 0.00 0.00 70 1014.2
20260507204510 18 5 11.3 20.9 0.00 0.00 0.00 68 1014.2
20260507204022 18 49 9.7 19.3 0.00 0.00 0.00 70 1014.3
20260507203538 18 360 9.7 19.3 0.00 0.00 0.00 71 1014.5
20260507203048 18 22 4.8 19.3 0.00 0.00 0.00 72 1014.6
20260507202507 18 23 6.4 22.5 0.00 0.00 0.00 72 1014.2
20260507202020 17 355 9.7 27.4 0.00 0.00 0.00 72 1013.9
20260507201540 17 18 11.3 27.4 0.00 0.00 0.00 71 1013.9
20260507201053 17 57 11.3 22.5 0.00 0.00 0.00 71 1014.1
20260507200508 17 38 12.9 22.5 0.00 0.00 0.00 71 1014.3
20260507200001 18 59 11.3 19.3 0.00 0.00 0.00 72 1014.9
20260507195511 18 68 3.2 19.3 0.00 0.00 0.00 74 1015.0
20260507195028 17 10 9.7 19.3 0.00 0.00 0.00 73 1014.7
20260507194538 17 40 8.0 24.1 0.00 0.00 0.00 73 1014.8
20260507194053 17 37 14.5 25.7 0.00 0.00 0.00 73 1014.7
20260507193505 17 5 11.3 25.7 0.00 0.00 0.00 72 1014.9
20260507193026 17 17 12.9 24.1 0.00 0.00 0.00 74 1015.0
20260507192531 17 60 11.3 19.3 0.00 0.00 0.00 74 1015.0
20260507192049 17 350 9.7 22.5 0.00 0.00 0.00 75 1015.2
20260507191504 17 64 6.4 25.7 0.00 0.00 0.00 75 1014.9
20260507191019 17 42 11.3 25.7 0.00 0.00 0.00 76 1015.0
20260507190530 17 360 8.0 24.1 0.00 0.00 0.00 78 1015.1
20260507190035 17 24 12.9 22.5 0.00 0.00 0.00 78 1014.9
20260507185535 17 32 9.7 19.3 0.00 0.00 0.00 82 1015.2
20260507185049 16 20 11.3 19.3 0.00 0.00 0.00 82 1015.2
20260507184559 16 56 6.4 20.9 0.00 0.00 0.00 83 1015.2
20260507184502 16 30 8.0 20.9 0.00 0.00 0.00 83 1015.2
20260507184015 16 27 9.7 19.3 0.00 0.00 0.00 83 1015.4
20260507183527 16 71 9.7 16.1 0.00 0.00 0.00 84 1015.6
20260507183045 16 53 4.8 16.1 0.00 0.00 0.00 84 1015.7
20260507182556 16 50 8.0 16.1 0.00 0.00 0.00 84 1015.6
20260507182011 15 19 8.0 14.5 0.00 0.00 0.00 84 1015.6
20260507181523 15 20 8.0 17.7 0.00 0.00 0.00 85 1015.9
20260507181033 15 12 8.0 17.7 0.00 0.00 0.00 85 1016.0
20260507180552 15 78 4.8 17.7 0.00 0.00 0.00 85 1015.8
20260507180051 15 53 8.0 17.7 0.00 0.00 0.00 85 1016.0
20260507175559 15 24 3.2 16.1 0.00 0.00 0.00 86 1016.2
20260507175501 15 34 4.8 16.1 0.00 0.00 0.00 86 1016.2
20260507175017 15 360 6.4 16.1 0.00 0.00 0.00 86 1016.0
20260507174537 15 50 8.0 14.5 0.00 0.00 0.00 87 1015.8
20260507174046 15 348 4.8 14.5 0.00 0.00 0.00 87 1016.1
20260507173557 15 22 4.8 14.5 0.00 0.00 0.00 87 1016.0
20260507173009 15 74 6.4 17.7 0.00 0.00 0.00 87 1015.9
20260507172524 15 43 8.0 17.7 0.00 0.00 0.00 87 1015.6
20260507172032 14 355 4.8 16.1 0.00 0.00 0.00 87 1015.8
20260507171552 14 40 4.8 22.5 0.00 0.00 0.00 88 1015.8
20260507171005 14 319 6.4 22.5 0.00 0.00 0.00 88 1016.3
20260507170519 14 31 6.4 16.1 0.00 0.00 0.00 88 1015.9
20260507170015 14 21 9.7 17.7 0.00 0.00 0.00 88 1015.5
20260507165523 14 10 6.4 17.7 0.00 0.00 0.00 88 1015.6
20260507165037 14 355 9.7 16.1 0.00 0.00 0.00 89 1016.0
20260507164547 14 88 8.0 17.7 0.00 0.00 0.00 89 1015.9
20260507164004 13 57 9.7 17.7 0.00 0.00 0.00 89 1016.0
20260507163515 13 58 6.4 19.3 0.00 0.00 0.00 88 1015.9
20260507163031 13 50 9.7 19.3 0.00 0.00 0.00 88 1015.8
20260507162541 13 34 3.2 12.9 0.00 0.00 0.00 88 1015.8
20260507162100 13 355 3.2 12.9 0.00 0.00 0.00 88 1016.3
20260507161511 13 355 4.8 16.1 0.00 0.00 0.00 88 1016.3
20260507161025 13 49 4.8 17.7 0.00 0.00 0.00 88 1016.0
20260507160535 13 5 8.0 24.1 0.00 0.00 0.00 88 1016.1
20260507160036 13 13 8.0 24.1 0.00 0.00 0.00 88 1016.0
20260507155542 13 16 11.3 25.7 0.00 0.00 0.00 88 1016.1